カタログに戻る

METEOR 2-17 DEB

LostPO
NORAD 38544·DEBRIS·🇷🇺 Russia

打ち上げ Jan 30, 1988 から Plesetsk Cosmodrome

Loading…

次のパス (今後24時間)

TLE

古いSource: Space-Track

元期: Sep 25, 2024, 03:05 UTC

1 38544U 88005AX  24269.12867836  .00004283  00000-0  29787-2 0  9991
2 38544  82.5257  52.8618 0012958 353.4717   6.6280 13.98513843138289

AllMySatでMETEOR 2-17 DEBをリアルタイム追跡

Download on the App Store